Regional Weather Roundup
Issued by NWS

Home | Current Version | Previous Version | Text Only | Print | Product List | Glossary On
Versions: 1 2 3 4 5 6 7 8 9 10 11 12 13 14 15 16 17 18 19 20 21 22 23 24 25 26 27 28 29 30 31 32 33 34 35 36 37 38 39 40 41 42 43 44 45 46 47 48 49 50
000
ASUS42 KFFC 061203
RWRGA
WEATHER ROUNDUP FOR GEORGIA
NATIONAL WEATHER SERVICE PEACHTREE CITY GA
800 AM EDT WED MAY 06 2015

NOTE: "FAIR" INDICATES FEW OR NO CLOUDS BELOW 12,000 FEET WITH NO
SIGNIFICANT WEATHER AND/OR OBSTRUCTIONS TO VISIBILITY.

* = USE WITH CAUTION. THE STATIONS MARKED WITH AN ASTERISK MAY NOT
REPORT WEATHER SUCH AS PRECIPITATION, FOG, OR THUNDER AND ARE NOT
QUALITY CONTROLLED BY NWS.

THE REMARK "TC" DENOTES TEMPERATURE READING IN DEGREES CELSIUS.

GAZ001>058-061300-
NORTH GEORGIA

CITY           SKY/WX    TMP DP  RH WIND       PRES   REMARKS
ATLANTA        MOSUNNY   64  54  69 E5        30.23R
6HR MIN TEMP:  60; 6HR MAX TEMP:  66;

ATHENS         SUNNY     57  55  93 CALM      30.23R FOG
6HR MIN TEMP:  53; 6HR MAX TEMP:  59;

CHAMBLEE       SUNNY     61  55  81 CALM      30.23R HAZE
6HR MIN TEMP:  53; 6HR MAX TEMP:  61;

PEACHTREE CITY SUNNY     54  51  90 CALM      30.23R
6HR MIN TEMP:  50; 6HR MAX TEMP:  54;

ROME           SUNNY     55  53  93 NE3       30.23R
6HR MIN TEMP:  52; 6HR MAX TEMP:  59;

WEST ATLANTA   SUNNY     57  53  86 NE3       30.23R
6HR MIN TEMP:  52; 6HR MAX TEMP:  57;

GAINESVILLE    SUNNY     61  53  75 CALM      30.26R
6HR MIN TEMP:  56; 6HR MAX TEMP:  62;

CARTERSVILLE   SUNNY     57  54  89 CALM      30.24R
6HR MIN TEMP:  50; 6HR MAX TEMP:  57;



CITY           SKY/WX    TMP DP  RH WIND       PRES   REMARKS
DALTON*        SUNNY     52  52 100 CALM      30.24R
LAWRENCEVILLE* SUNNY     61  54  77 CALM      30.24R
MARIETTA       MOSUNNY   59  55  86 NE3       30.23R
KENNESAW*      SUNNY     57  54  88 CALM      30.25R
BLAIRSVILLE*     N/A     49  44  81 CALM      30.28S
$$

GAZ059>098-102>109-061300-
CENTRAL GEORGIA

CITY           SKY/WX    TMP DP  RH WIND       PRES   REMARKS
AUGUSTA-BUSH   PTSUNNY   59  56  89 N5        30.21R
6HR MIN TEMP:  50; 6HR MAX TEMP:  59;

AUGUSTA-DANIEL PTSUNNY   62  55  77 N6        30.22R
6HR MIN TEMP:  60; 6HR MAX TEMP:  66;

COLUMBUS       SUNNY     61  55  81 CALM      30.19R
6HR MIN TEMP:  57; 6HR MAX TEMP:  64;

MACON          SUNNY     55  54  96 CALM      30.20R
6HR MIN TEMP:  51; 6HR MAX TEMP:  56;

ROBINS AFB     SUNNY     58  56  94 NW2       30.20R


CITY           SKY/WX    TMP DP  RH WIND       PRES   REMARKS
LAGRANGE*      SUNNY     58  57  95 CALM      30.21S
SYLVANIA*      PTSUNNY   61  61  99 NE3       30.19S
MILLEDGEVILLE* SUNNY     59  59 100 CALM      30.22R
$$

GAZ099>101-110>166-061300-
SOUTH GEORGIA

CITY           SKY/WX    TMP DP  RH WIND       PRES   REMARKS
SAVANNAH       CLOUDY    64  60  87 NE8       30.16S
6HR MIN TEMP:  60; 6HR MAX TEMP:  65;

VALDOSTA       CLOUDY    65  63  93 N6        30.13S
6HR MIN TEMP:  60; 6HR MAX TEMP:  65;

ALMA           SUNNY     62  60  93 VRB3      30.15R
6HR MIN TEMP:  59; 6HR MAX TEMP:  62;

ST SIMONS      CLOUDY    70  66  87 NE10      30.12R
6HR MIN TEMP:  67; 6HR MAX TEMP:  70;

FT STEWART     PTSUNNY   62  60  93 NE7       30.14R
ALBANY         SUNNY     65  59  81 NE6       30.18R
HUNTER AFB     PTSUNNY   66  63  89 NE5       30.13S
MOODY AFB      MOSUNNY   65  62  88 NE5       30.13R
BRUNSWICK      PTSUNNY   66  63  88 N6        30.13S


CITY           SKY/WX    TMP DP  RH WIND       PRES   REMARKS
BAINBRIDGE*    SUNNY     66  63  88 NE5       30.16R
MOULTRIE*      SUNNY     64  61  88 NE3       30.16R
VIDALIA*       PTSUNNY   59  59 100 N5        30.18R
WAYCROSS*      SUNNY     66  65  99 CALM      30.14R
DOUGLAS*       SUNNY     64  61  88 NE7       30.17R
$$



USA.gov is the U.S. government's official web portal to all federal, state and local government web resources and services.